Location: Clanezzo
(45.7500°N, 9.6000°E)
Time: 10:47:56
(UTC+00:00)

CUTE-I - Pass Details

Date: 10 December 2023
Orbit: 807 x 822 km, 98.7° (Epoch: 23 February)

Event Time Altitude Azimuth Distance (km) Brightness Sun altitude
Rises 05:04:05 0° 21° (NNE) 3,365 ? -17.9°
Reaches altitude 10° 05:06:38 10° 30° (NNE) 2,429 ? -17.4°
Maximum altitude 05:11:35 37° 97° (E) 1,268 ? -16.6°
Drops below altitude 10° 05:16:30 10° 164° (SSE) 2,416 ? -15.8°
Sets 05:19:01 0° 172° (S) 3,344 ? -15.4°
